Thursday, September 20, 2018, 4:23 PM EDT
Back to Local

KPNE, N.e. Philadelphia Airport

Location: Philadelphia, PA, United States Lat: 40.083
Local Time: 4:23 PM EDT (20:23 GMT) Lon: -75.017
Time Zone: US/Eastern Elev: 121 ft

Show me the last for .
Show Decoded

2018-09-20 15:54 METAR KPNE 201954Z 13009KT 10SM BKN023 OVC031 23/17 A3022 RMK AO2 SLP230
                 T02280167 =
2018-09-20 14:54 METAR KPNE 201854Z 16004KT 10SM OVC025 23/17 A3022 RMK AO2 SLP232 T02280167 =
2018-09-20 14:03 METAR KPNE 201803Z 12009KT 10SM BKN024 BKN029 OVC060 23/17 A3023 RMK AO2
                 T02330172 =
2018-09-20 13:54 METAR KPNE 201754Z 13006KT 10SM SCT024 SCT029 OVC060 23/17 A3023 RMK AO2 SLP235
                 T02330167 10233 20200 58004 =
2018-09-20 13:44 METAR KPNE 201744Z 11006KT 10SM SCT024 OVC060 23/17 A3023 RMK AO2 T02330172 =
2018-09-20 12:54 METAR KPNE 201654Z 12006KT 10SM OVC023 22/17 A3025 RMK AO2 SLP241 T02220167 =
2018-09-20 11:54 METAR KPNE 201554Z 11007KT 10SM OVC023 23/17 A3025 RMK AO2 SLP241 T02280167 =
2018-09-20 10:54 METAR KPNE 201454Z 12007KT 080V140 10SM SCT019 OVC028 22/17 A3024 RMK AO2 SLP239
                 T02220167 51018 =
2018-09-20 09:54 METAR KPNE 201354Z 12007KT 10SM OVC019 21/16 A3023 RMK AO2 SLP236 T02110161 =
2018-09-20 08:54 METAR KPNE 201254Z 08006KT 10SM OVC016 21/16 A3022 RMK AO2 SLP230 T02060161 =
2018-09-20 07:54 METAR KPNE 201154Z 11006KT 10SM FEW011 OVC019 20/17 A3019 RMK AO2 SLP221
                 T02000172 10222 20200 51029 =
2018-09-20 07:43 METAR KPNE 201143Z 11008KT 10SM OVC017 20/17 A3018 RMK AO2 T02000167 =
2018-09-20 07:16 METAR KPNE 201116Z 10010KT 6SM HZ OVC014 20/17 A3018 RMK AO2 T02000167 =
2018-09-20 06:54 METAR KPNE 201054Z 10009KT 10SM OVC015 21/17 A3017 RMK AO2 SLP214 T02060172 =
2018-09-20 05:54 METAR KPNE 200954Z AUTO 11010KT 10SM OVC014 21/17 A3012 RMK AO2 SLP199 T02110172
                 =
2018-09-20 04:54 METAR KPNE 200854Z AUTO 11008KT 10SM OVC013 21/18 A3010 RMK AO2 SLP192 T02110183
                 53006 =
2018-09-20 03:54 METAR KPNE 200754Z AUTO 12005KT 10SM BKN012 BKN022 22/19 A3009 RMK AO2 SLP189
                 T02170189 =
2018-09-20 03:49 METAR KPNE 200749Z AUTO 12004KT 10SM BKN014 BKN022 22/19 A3009 RMK AO2 =
2018-09-20 03:41 METAR KPNE 200741Z AUTO 15003KT 10SM FEW012 SCT022 BKN049 22/19 A3009 RMK AO2
                 T02170189 =
2018-09-20 03:29 METAR KPNE 200729Z AUTO 13006KT 10SM FEW012 BKN022 OVC049 22/19 A3009 RMK AO2
                 T02170189 =
2018-09-20 03:06 METAR KPNE 200706Z AUTO 14004KT 10SM FEW009 BKN014 OVC027 22/19 A3009 RMK AO2
                 T02220194 =
2018-09-20 02:54 METAR KPNE 200654Z AUTO VRB05KT 10SM BKN017 OVC022 22/19 A3009 RMK AO2 SLP186
                 T02220194 =
2018-09-20 02:35 METAR KPNE 200635Z AUTO 13006KT 10SM OVC020 22/19 A3008 RMK AO2 CIG 013V025
                 T02220194 =
2018-09-20 01:54 METAR KPNE 200554Z AUTO 13003KT 10SM FEW010 BKN014 OVC037 22/19 A3008 RMK AO2
                 SLP186 T02220194 10233 20222 51010 =
2018-09-20 01:21 METAR KPNE 200521Z AUTO 15005KT 10SM SCT014 BKN020 OVC043 22/19 A3008 RMK AO2
                 T02220194 =
2018-09-20 01:04 METAR KPNE 200504Z AUTO 12005KT 10SM BKN014 OVC020 22/19 A3008 RMK AO2 T02220194
                 =
2018-09-20 00:54 METAR KPNE 200454Z AUTO 00000KT 10SM SCT014 BKN022 OVC038 22/19 A3008 RMK AO2
                 SLP183 T02220194 403000194 =
2018-09-20 00:27 METAR KPNE 200427Z AUTO 00000KT 10SM FEW014 BKN023 BKN033 22/19 A3007 RMK AO2
                 T02220194 =
2018-09-20 00:14 METAR KPNE 200414Z AUTO 00000KT 10SM FEW014 SCT023 BKN033 22/19 A3007 RMK AO2
                 T02220194 =
2018-09-19 23:54 METAR KPNE 200354Z AUTO 14005KT 10SM BKN021 OVC030 23/20 A3007 RMK AO2 SLP181
                 T02280200 =
2018-09-19 23:04 METAR KPNE 200304Z AUTO 12007KT 10SM OVC015 23/20 A3006 RMK AO2 T02280200 =
2018-09-19 22:54 METAR KPNE 200254Z AUTO 13008KT 10SM OVC013 23/20 A3006 RMK AO2 SLP176 T02280200
                 51025 =
2018-09-19 22:34 METAR KPNE 200234Z 12005KT 10SM BKN011 23/20 A3005 RMK AO2 T02280200 =
2018-09-19 21:54 METAR KPNE 200154Z 12003KT 10SM CLR 23/19 A3004 RMK AO2 SLP170 T02280194 =
2018-09-19 20:54 METAR KPNE 200054Z 11006KT 10SM CLR 23/18 A3001 RMK AO2 SLP161 T02330183 =
2018-09-19 19:54 METAR KPNE 192354Z 03003KT 10SM CLR 24/18 A2998 RMK AO2 SLP151 T02440178 10300
                 20244 53017 =
2018-09-19 18:54 METAR KPNE 192254Z 05004KT 10SM CLR 26/18 A2996 RMK AO2 SLP143 T02610183 =
2018-09-19 17:54 METAR KPNE 192154Z 02007KT 10SM SCT110 28/18 A2995 RMK AO2 SLP141 T02830178 =
2018-09-19 16:54 METAR KPNE 192054Z 35007KT 10SM CLR 29/18 A2993 RMK AO2 SLP134 T02890178 53002 =

Support USWX by starting your Amazon purchase here.